Temperature
17 17 17 17 14 12 14 15 15 15 15 15 16 16 15 15 15 16 15 15 15 15 15 15 15 15 15 15 15 15 15 15 15 15 15 15 15 15 15 15 15 15 15 15 15 15 15 15 15
16 17 17 16 13 13 14 14 14 15 16 15 15 15 14 14 14 15 15 15 15 15 15 15 15 15 15 14 15 15 15 15 15 15 15 15 15 15 15 15 15 15 15 15 15 15 15 15 15
16 16 17 12 12 13 15 15 14 15 15 15 14 14 14 14 14 14 15 15 15 15 15 15 14 14 14 14 14 14 14 14 15 15 15 15 15 15 15 15 15 15 15 15 15 15 15 15 15
16 16 15 12 13 13 14 14 14 14 15 15 14 13 13 14 14 14 15 14 14 14 14 14 14 14 14 14 14 14 14 14 14 14 15 15 15 15 15 15 15 15 15 15 15 15 15 15 15
16 16 12 12 13 13 13 14 14 14 14 14 14 13 13 14 14 14 14 14 14 14 14 14 14 14 14 14 14 14 14 14 14 14 14 15 15 15 15 15 15 15 15 15 14 14 14 14 14
15 12 11 12 13 13 13 14 14 14 14 14 13 12 13 14 14 14 14 14 14 14 14 14 14 14 14 14 14 14 14 14 14 14 14 14 14 14 14 14 14 14 14 14 14 14 14 14 14
13 10 11 12 12 13 14 14 14 13 13 13 14 12 13 13 14 14 14 14 14 14 14 14 13 14 14 14 14 14 13 14 14 14 14 14 14 14 14 14 14 14 14 14 14 14 14 14 14
14 10 11 11 12 13 13 14 14 14 13 13 14 13 13 13 13 13 13 13 13 13 13 13 13 13 13 13 13 13 13 13 13 13 14 14 14 14 14 14 14 13 13 14 14 14 14 14 14
13 10 11 11 12 13 13 13 13 13 13 13 13 13 13 13 13 13 13 13 13 13 13 13 13 13 13 13 13 13 13 13 13 13 13 13 13 13 13 13 13 13 13 13 13 13 14 14 13
12 10 11 12 12 12 12 12 12 12 12 12 12 13 13 13 13 13 13 13 13 12 12 12 12 12 12 13 13 13 13 13 13 13 13 13 13 13 13 13 13 13 13 13 13 13 13 13 13
10 10 11 12 12 12 12 12 12 12 11 12 13 13 13 13 13 13 13 12 12 12 12 12 12 12 12 12 12 12 12 12 12 12 12 13 13 13 13 13 13 13 13 13 13 13 13 13 13
10 10 11 11 12 12 12 12 11 11 12 13 13 13 13 13 12 12 12 12 12 12 12 12 12 12 12 12 12 12 12 12 12 12 12 12 12 12 12 12 12 12 12 13 13 13 12 12 12
10 10 11 11 11 11 11 11 11 11 12 13 13 13 12 12 12 12 12 12 12 11 11 11 11 11 11 11 11 11 12 12 12 12 12 12 12 12 12 12 12 12 12 12 12 12 12 12 12
9 10 10 11 11 10 10 10 10 11 12 12 12 12 12 12 12 12 12 11 11 11 11 11 11 11 11 11 11 11 11 11 11 11 12 12 12 12 12 12 12 12 12 12 12 12 12 12 12
10 9 9 9 10 10 10 9 8 11 11 11 11 11 11 11 11 11 11 11 11 11 11 11 11 11 11 11 11 11 11 11 11 11 11 11 11 11 11 11 11 11 11 11 11 11 11 11 11
9 9 9 9 9 9 10 9 9 10 10 10 11 11 11 11 11 11 11 11 11 11 11 11 11 10 10 10 10 10 10 10 10 10 11 11 11 11 11 11 11 11 11 11 11 11 11 11 11
8 8 8 9 9 8 9 8 8 10 10 9 10 10 10 10 10 11 11 10 10 10 10 10 10 10 10 10 10 10 10 10 10 10 10 10 10 10 10 11 11 11 11 11 11 10 10 10 10
8 7 8 8 8 8 7 7 7 9 8 8 9 9 10 10 10 10 10 10 10 10 10 10 10 10 10 10 10 9 9 10 10 10 10 10 10 10 10 10 10 10 10 10 10 10 10 10 10
8 7 7 8 8 7 7 7 7 7 7 7 8 8 9 9 10 10 10 10 9 9 9 10 9 9 9 9 9 9 9 9 9 9 9 9 9 9 9 10 10 10 10 10 10 10 10 9 9
7 7 7 7 7 7 6 6 6 6 7 7 7 8 8 9 9 9 9 9 9 9 9 9 9 9 9 9 9 9 9 9 9 9 9 9 9 9 9 9 9 9 9 9 9 9 9 9 9
7 7 7 7 7 6 6 7 7 7 6 7 7 8 8 9 9 9 9 9 8 9 9 8 8 8 8 8 8 8 8 8 8 8 8 8 8 8 8 9 9 9 9 9 9 9 9 9 8
7 7 7 7 6 5 6 6 7 6 6 6 6 7 8 8 8 8 8 8 8 8 8 8 8 8 8 8 7 8 8 8 8 8 8 8 8 8 8 8 8 8 8 8 8 8 8 8 8
6 6 6 6 5 5 5 5 6 5 6 6 6 7 7 8 8 8 8 8 8 8 8 8 7 7 7 7 7 7 7 7 7 7 7 7 7 7 8 8 8 8 8 8 8 8 8 7 8
6 5 5 4 4 5 5 5 5 5 6 6 6 6 7 7 8 8 8 8 7 7 7 7 7 7 7 7 6 6 6 7 7 7 7 7 7 7 7 7 7 7 7 8 7 7 7 7 7
5 5 4 5 4 5 4 4 5 5 5 5 5 6 7 7 7 7 7 7 7 7 7 7 6 6 6 6 6 6 6 6 6 6 7 7 7 7 7 7 7 7 7 7 7 7 7 7 7
5 5 5 5 5 4 4 4 5 5 5 5 5 5 6 6 7 7 7 7 7 6 6 6 6 6 6 6 6 5 5 5 5 5 6 6 6 6 6 6 6 6 6 6 6 6 6 6 6
4 4 4 3 3 3 4 3 4 4 4 4 4 4 5 6 6 6 6 6 6 6 6 6 6 5 5 5 5 5 5 5 5 5 5 5 5 6 6 6 6 6 6 6 6 6 6 6 6
4 3 2 3 4 5 4 4 4 5 4 4 3 4 5 5 6 6 6 6 5 5 5 5 5 5 5 5 5 5 5 5 5 5 5 5 5 5 5 5 5 5 5 5 5 5 5 5 5
3 3 2 2 3 4 4 5 4 4 4 3 3 4 5 5 5 5 5 5 5 5 5 5 5 5 4 4 4 4 4 4 4 4 4 4 4 4 4 4 5 5 5 5 5 5 5 5 5
3 2 2 3 2 2 2 4 5 3 3 3 4 4 5 5 5 5 5 5 5 4 4 4 4 4 4 4 4 4 4 3 3 4 4 4 4 4 4 4 4 4 4 4 4 4 4 4 4
Wind_Speed
8 4 2 4 5 4 2 4 3 2 1 0 1 3 5 4 3 2 1 2 3 4 5 6 8 8 8 8 8 9 9 9 10 10 10 10 10 10 9 9 10 11 11 11 11 12 12 12 13
3 2 5 5 5 1 5 4 4 3 2 2 3 3 4 2 1 2 1 1 4 5 5 6 8 8 8 8 8 9 8 8 9 9 9 9 9 9 9 9 9 10 11 11 11 11 11 12 13
2 4 4 4 4 6 5 3 4 1 0 2 3 4 2 1 1 1 1 3 4 5 6 7 9 8 8 8 8 8 8 8 8 8 8 8 8 8 8 8 9 9 10 10 11 11 11 11 12
3 4 5 4 4 6 4 2 2 1 2 3 3 3 1 2 1 1 3 5 6 4 5 7 9 8 7 7 7 7 7 7 7 7 7 7 7 7 7 8 8 9 9 10 10 10 10 11 11
4 4 3 0 5 5 4 3 3 2 2 1 3 3 1 4 2 4 6 6 6 5 5 6 7 7 6 6 6 6 6 6 7 7 6 6 6 6 7 7 8 8 9 9 10 10 10 10 10
4 4 3 4 6 4 3 2 2 2 2 2 4 4 1 1 3 4 5 5 5 5 5 5 7 6 6 6 5 5 5 5 6 6 6 6 6 6 6 6 7 7 8 9 9 9 9 9 9
4 4 5 5 4 4 3 2 3 3 2 2 4 5 1 0 2 5 5 6 5 5 5 4 5 5 5 5 4 4 5 5 5 5 5 5 5 5 6 6 6 7 8 8 9 9 8 8 9
4 5 3 4 5 5 2 2 2 3 3 1 4 5 3 3 5 6 6 5 5 5 4 4 5 5 5 5 4 4 4 5 5 5 5 5 5 4 5 5 5 6 7 7 8 8 8 8 8
4 3 5 7 6 4 1 1 1 1 4 1 1 2 1 6 7 7 5 4 4 3 3 3 4 4 5 4 4 4 4 4 5 5 5 5 4 4 4 4 5 5 6 7 8 8 8 8 8
4 4 7 4 4 3 2 2 2 2 1 1 0 1 4 8 8 8 6 6 4 3 2 2 3 3 4 4 4 4 4 4 4 4 4 4 4 3 4 4 5 5 6 6 7 8 7 7 7
4 6 4 2 2 1 1 1 2 5 3 5 6 5 7 7 7 7 6 5 5 4 2 2 2 3 3 3 3 3 3 3 4 4 4 3 3 3 3 4 4 4 4 5 5 6 6 6 6
3 3 3 2 0 0 2 1 1 4 5 4 6 8 8 9 9 8 7 5 4 3 3 1 1 2 2 3 3 3 2 2 2 2 3 3 3 2 2 3 3 3 4 4 5 5 5 6 6
3 3 2 1 1 1 1 2 3 4 5 1 4 7 8 8 7 6 5 5 4 3 2 2 2 2 2 2 2 2 2 1 1 1 2 3 2 1 2 2 2 3 3 4 4 4 4 4 4
2 2 2 3 1 1 2 3 2 6 2 2 5 6 6 7 7 5 5 5 5 4 3 2 2 2 2 1 1 1 1 1 1 1 1 2 2 2 2 2 2 2 3 4 4 4 4 3 4
0 1 3 2 2 2 1 4 5 5 2 3 4 5 5 5 5 6 6 6 5 5 4 3 2 2 2 1 1 1 1 1 1 0 1 2 3 3 2 1 1 2 3 4 4 3 4 3 3
2 1 2 4 1 1 3 8 5 2 3 4 5 5 5 4 5 4 4 4 4 4 4 3 2 2 2 1 1 1 1 1 1 1 1 1 2 3 3 2 1 2 3 3 3 2 2 2 2
1 2 3 4 1 1 4 8 5 2 3 5 6 6 5 4 4 4 4 4 4 4 4 3 2 2 1 1 1 1 1 1 0 1 1 1 2 3 3 2 2 3 3 2 2 2 2 3 2
4 3 3 4 3 1 4 9 8 4 5 7 7 6 6 6 6 4 3 4 3 3 4 3 3 2 1 1 1 1 1 1 1 0 0 1 1 2 3 2 2 3 3 2 2 3 2 2 3
3 3 4 5 3 2 7 11 11 6 5 7 7 7 7 7 5 3 3 3 3 3 3 4 3 2 2 1 1 1 1 1 1 1 1 0 1 1 1 1 2 3 3 3 3 3 3 2 1
2 3 4 4 2 2 6 10 9 7 6 6 6 7 7 5 3 3 3 3 4 4 4 4 4 3 3 2 2 1 1 1 1 0 1 1 1 0 1 1 2 2 3 3 3 3 3 2 1
3 5 5 4 4 2 4 8 6 4 3 3 4 5 5 6 6 4 4 5 4 5 5 4 4 3 3 2 2 1 1 1 0 1 1 1 1 0 1 1 2 2 3 3 3 4 5 4 2
5 4 4 3 2 4 1 6 7 4 4 5 5 4 5 4 4 4 4 5 5 5 4 4 3 3 3 3 3 3 2 1 2 1 1 1 1 1 0 1 2 2 2 2 3 3 3 5 4
4 1 1 2 2 3 2 4 8 3 5 7 6 6 5 4 4 4 5 5 4 4 3 3 3 3 3 3 4 4 2 1 1 0 0 1 1 1 0 1 2 2 2 2 2 2 3 3 4
2 2 3 2 1 5 5 5 7 5 7 6 5 5 4 3 3 2 2 2 2 2 2 3 3 3 2 3 3 3 3 2 1 0 1 1 1 0 0 1 1 1 2 2 2 2 3 3 3
2 3 2 3 2 6 3 5 9 7 6 5 5 5 4 3 2 2 2 2 3 3 3 3 4 3 2 2 2 3 3 3 3 2 2 1 1 1 1 1 1 1 2 2 2 2 2 3 4
3 4 5 5 5 5 2 7 8 5 4 3 3 3 2 1 2 2 3 3 3 3 3 4 4 3 2 2 2 1 2 2 1 2 2 2 2 2 1 1 2 2 2 2 2 2 2 2 3
3 3 2 3 1 3 6 7 9 3 3 3 2 2 2 2 2 2 2 2 2 3 3 4 4 3 3 3 2 2 2 1 1 1 1 1 1 1 1 1 1 2 2 2 2 1 1 2 2
2 4 3 3 3 5 6 5 5 6 5 4 4 4 3 2 1 1 2 2 2 2 2 2 3 3 3 3 2 2 2 1 1 0 0 1 1 0 1 1 1 1 1 2 2 1 1 1 1
2 2 3 2 3 3 4 7 5 5 5 5 5 4 3 2 2 2 2 2 1 1 2 2 3 3 2 3 3 2 2 1 1 1 0 0 0 1 1 1 1 1 1 1 2 1 1 1 1
3 4 5 4 4 4 3 8 4 5 4 4 4 3 3 2 2 2 2 1 1 1 1 2 2 3 3 3 2 2 2 1 1 1 0 1 1 1 1 1 1 1 1 1 1 2 2 2 1
Wind_Direction
343 354 57 58 58 56 233 245 229 250 239 264 105 127 137 136 157 178 17 109 113 129 139 147 139 130 124 119 113 107 106 104 104 101 102 102 99 97 95 99 100 97 93 93 93 92 90 89 90
341 12 55 63 99 165 256 238 220 220 184 114 66 74 85 82 50 91 102 122 119 124 126 132 134 132 127 123 120 114 111 107 107 105 104 103 101 98 96 97 102 101 97 94 95 95 93 92 93
3 47 83 85 136 190 221 218 209 242 108 109 81 54 83 81 66 160 178 135 110 107 116 127 131 130 129 129 125 121 117 114 111 108 105 104 105 102 99 100 102 103 102 99 97 96 97 96 96
68 51 59 92 208 220 217 224 192 150 69 64 106 76 40 10 260 183 125 124 113 95 104 124 132 132 128 127 128 126 123 119 116 113 110 108 109 108 104 104 105 107 105 104 104 101 100 100 99
60 81 80 211 240 245 239 237 186 160 154 93 121 120 56 351 55 113 123 121 120 107 94 115 128 130 128 125 121 123 126 126 123 120 117 114 114 112 110 109 109 113 112 110 109 105 102 103 102
64 76 120 217 242 260 255 215 158 157 147 127 127 127 158 29 99 122 121 116 109 109 98 107 119 124 129 127 125 123 121 124 122 123 118 115 115 113 117 114 113 116 118 117 114 110 105 105 105
117 120 177 202 228 256 241 173 158 165 158 190 156 134 178 200 139 127 118 111 102 96 92 90 103 107 115 122 126 125 115 112 113 117 116 113 113 114 119 120 119 121 124 123 120 115 110 107 107
126 120 163 208 210 242 233 155 149 158 175 147 143 152 196 197 148 123 111 104 100 92 84 79 79 82 85 94 102 106 107 105 101 104 107 106 112 118 122 128 127 129 130 128 125 121 114 111 106
97 103 202 213 202 228 201 135 22 87 117 103 148 184 190 137 136 123 113 101 103 99 80 76 73 75 80 87 93 88 92 94 92 91 97 100 94 104 115 130 132 133 136 137 132 127 119 114 106
108 177 217 211 201 209 195 167 169 109 106 163 313 55 111 133 144 147 151 154 152 149 121 83 81 77 77 83 83 82 80 82 83 85 91 97 101 107 119 133 138 136 136 139 136 131 124 110 101
148 194 219 245 226 188 181 197 169 150 215 213 199 179 153 152 158 165 170 171 170 162 142 108 89 81 82 79 82 84 84 85 85 88 92 98 103 106 111 121 127 126 126 123 124 115 111 110 107
159 238 229 265 309 156 195 191 205 200 230 222 188 166 161 168 178 181 179 175 161 149 151 136 100 87 75 77 81 83 85 84 83 98 108 104 100 98 106 111 116 119 121 118 117 113 113 113 115
198 240 250 260 344 271 178 221 231 256 261 188 147 157 172 183 184 182 174 163 158 162 164 164 129 121 96 86 79 77 84 96 114 114 123 126 122 125 124 121 115 117 121 126 127 123 121 114 110
211 234 282 296 274 242 201 265 237 259 249 156 162 181 189 191 189 177 172 176 176 178 181 175 152 147 121 129 113 102 106 95 115 121 145 154 148 143 135 133 128 128 130 134 136 139 136 132 122
105 7 326 295 235 221 148 289 235 245 168 190 201 203 199 199 190 193 192 187 186 182 177 171 167 144 145 151 147 109 118 114 106 120 200 181 170 157 146 146 152 152 145 134 126 126 127 132 127
67 61 278 293 249 200 154 258 255 236 171 224 229 221 216 215 204 207 200 189 181 172 170 172 160 143 153 157 157 128 112 121 130 165 207 197 191 174 157 160 178 158 143 137 138 144 151 152 151
43 222 240 292 293 168 190 249 262 233 204 239 244 237 230 231 225 216 200 191 183 177 172 166 153 153 163 155 141 115 108 131 150 182 197 198 201 188 167 168 174 157 139 142 165 160 164 164 161
215 215 237 255 297 208 235 255 270 259 232 245 248 244 232 232 237 223 197 188 181 175 169 162 156 161 153 135 109 100 69 55 35 46 14 185 193 190 177 170 169 155 158 167 163 154 141 159 161
176 195 247 265 287 253 246 262 271 261 243 247 247 241 236 240 238 209 191 178 170 170 167 165 159 164 151 154 165 175 224 271 299 335 360 37 184 178 164 191 173 160 173 178 171 157 139 116 127
198 238 261 284 308 264 275 272 267 247 235 233 235 238 238 240 240 216 196 185 186 186 185 176 175 174 172 177 188 187 201 227 251 313 12 7 13 111 151 166 199 169 166 165 173 162 157 139 137
234 219 237 258 318 337 313 294 271 256 239 245 242 237 234 224 225 218 203 202 195 194 194 187 183 178 171 155 122 88 61 39 22 327 321 346 3 27 131 145 178 169 169 180 187 184 168 171 166
247 239 226 242 280 287 359 287 281 262 266 249 248 241 238 233 220 216 208 205 204 204 192 179 174 170 168 160 157 158 170 209 243 250 263 325 30 36 101 130 135 145 155 171 194 188 183 171 178
220 248 207 224 206 282 257 233 280 280 257 253 244 240 240 230 212 213 210 206 201 187 176 169 162 163 162 164 171 174 180 193 217 275 279 337 7 22 45 114 125 142 142 144 155 162 172 180 180
163 66 49 46 88 267 232 207 274 244 231 252 246 240 237 229 220 216 199 170 160 152 150 150 154 162 160 157 166 172 176 164 150 198 208 249 277 276 280 136 142 152 142 148 171 173 169 174 166
82 93 17 341 312 251 214 213 250 252 242 238 245 247 243 223 200 194 186 180 175 167 162 160 158 162 162 157 167 179 183 175 179 198 209 211 241 261 258 202 172 164 154 149 150 171 178 179 171
205 163 179 213 238 277 253 234 254 262 277 266 257 244 229 224 204 198 204 199 193 185 175 168 169 170 169 166 181 186 180 180 197 207 204 210 223 230 231 199 171 159 149 146 143 156 185 175 180
156 201 182 150 221 271 262 279 299 270 296 299 282 251 232 233 223 212 205 200 198 195 194 183 172 172 177 176 171 176 177 171 199 232 221 218 232 209 172 173 155 144 138 143 137 152 172 173 182
154 143 107 147 200 260 282 271 263 279 271 276 270 262 261 255 242 224 207 204 208 205 192 174 169 177 178 170 174 180 183 182 173 167 226 252 255 113 141 156 149 139 138 137 141 145 142 136 171
140 149 154 156 185 203 268 270 237 244 245 243 255 255 247 241 236 224 213 209 194 176 166 173 177 169 169 174 174 171 180 176 148 155 247 248 149 116 144 150 146 135 123 123 142 157 163 162 168
207 195 169 180 226 205 232 270 277 246 255 236 251 261 253 238 230 215 204 190 176 184 194 194 190 187 191 185 173 176 170 159 156 172 206 124 114 106 125 123 118 131 138 136 155 176 174 174 188
Height
1491 1492 1494 1496 1500 1512 1512 1506 1502 1500 1499 1499 1499 1499 1501 1503 1507 1511 1507 1505 1507 1509 1511 1513 1515 1516 1518 1519 1520 1520 1521 1522 1523 1524 1525 1526 1526 1527 1528 1529 1530 1530 1531 1531 1531 1532 1532 1533 1534
1491 1492 1495 1496 1507 1516 1511 1503 1501 1499 1498 1498 1498 1499 1500 1502 1503 1504 1504 1505 1508 1509 1511 1513 1515 1516 1518 1519 1520 1521 1521 1522 1523 1524 1525 1526 1527 1527 1528 1529 1530 1531 1531 1531 1532 1533 1533 1534 1535
1491 1492 1495 1499 1509 1511 1504 1499 1498 1497 1497 1498 1499 1500 1501 1503 1503 1504 1505 1506 1508 1510 1511 1513 1515 1516 1518 1519 1520 1521 1521 1522 1523 1524 1525 1526 1527 1528 1528 1529 1530 1531 1531 1532 1532 1533 1534 1534 1535
1491 1494 1495 1503 1505 1502 1499 1496 1496 1497 1498 1498 1499 1501 1502 1504 1504 1504 1505 1506 1508 1510 1512 1513 1515 1516 1517 1519 1520 1521 1521 1522 1523 1524 1525 1525 1526 1527 1528 1529 1530 1530 1531 1532 1532 1533 1534 1535 1535
1491 1492 1500 1506 1502 1498 1496 1495 1495 1496 1497 1498 1499 1501 1502 1504 1503 1504 1506 1507 1508 1510 1512 1513 1514 1516 1517 1518 1519 1520 1521 1522 1523 1523 1524 1525 1526 1527 1528 1529 1529 1530 1531 1532 1532 1533 1534 1535 1536
1491 1493 1505 1507 1501 1496 1494 1494 1494 1496 1497 1498 1499 1500 1502 1503 1504 1505 1506 1507 1509 1510 1511 1512 1514 1515 1516 1517 1518 1519 1520 1521 1522 1523 1524 1524 1525 1526 1527 1528 1529 1530 1531 1532 1532 1533 1534 1535 1536
1491 1497 1502 1501 1500 1496 1493 1492 1494 1495 1496 1497 1498 1500 1501 1502 1503 1505 1506 1507 1508 1510 1511 1512 1513 1514 1516 1516 1517 1518 1519 1520 1521 1522 1523 1524 1525 1525 1526 1527 1528 1529 1530 1531 1532 1533 1534 1535 1536
1489 1495 1500 1501 1499 1494 1492 1492 1492 1494 1495 1497 1498 1499 1500 1502 1503 1504 1506 1507 1508 1509 1510 1511 1512 1513 1514 1515 1516 1517 1518 1519 1520 1521 1522 1523 1524 1525 1526 1527 1528 1529 1530 1531 1531 1532 1533 1534 1535
1489 1498 1500 1497 1496 1493 1491 1491 1492 1493 1494 1495 1496 1498 1499 1500 1502 1503 1505 1506 1507 1508 1509 1510 1511 1512 1513 1514 1515 1516 1517 1518 1519 1520 1521 1522 1523 1524 1525 1526 1527 1528 1529 1530 1531 1532 1533 1534 1535
1489 1497 1493 1491 1490 1490 1490 1490 1492 1493 1493 1494 1495 1496 1498 1499 1501 1502 1502 1503 1505 1506 1508 1509 1510 1511 1512 1513 1514 1515 1516 1517 1517 1518 1519 1520 1521 1522 1523 1524 1525 1526 1527 1529 1530 1530 1532 1533 1534
1488 1491 1489 1488 1488 1488 1489 1490 1491 1491 1493 1492 1492 1494 1496 1498 1499 1500 1501 1502 1503 1505 1506 1507 1508 1509 1510 1511 1512 1513 1514 1515 1516 1516 1517 1518 1519 1520 1521 1523 1524 1525 1526 1527 1528 1529 1530 1532 1533
1488 1488 1487 1487 1487 1488 1489 1489 1490 1490 1489 1490 1491 1492 1494 1495 1497 1498 1500 1501 1502 1504 1505 1506 1507 1508 1509 1510 1511 1511 1512 1513 1514 1515 1515 1516 1517 1518 1519 1520 1521 1523 1524 1525 1526 1528 1529 1531 1532
1487 1487 1487 1487 1487 1488 1488 1489 1489 1488 1488 1488 1489 1491 1492 1493 1495 1497 1498 1500 1501 1502 1503 1504 1505 1506 1507 1508 1509 1510 1510 1511 1511 1512 1513 1514 1515 1516 1517 1518 1519 1521 1522 1523 1525 1526 1527 1529 1530
1486 1486 1486 1486 1486 1487 1488 1488 1488 1485 1486 1487 1487 1489 1490 1491 1493 1494 1496 1497 1498 1500 1501 1502 1503 1504 1505 1506 1507 1507 1508 1509 1509 1510 1511 1511 1512 1513 1515 1516 1517 1518 1520 1521 1522 1524 1525 1527 1528
1486 1487 1487 1486 1485 1486 1487 1488 1486 1484 1485 1485 1486 1487 1488 1490 1491 1492 1493 1495 1496 1497 1499 1500 1501 1502 1502 1504 1504 1505 1505 1506 1507 1507 1508 1509 1510 1511 1512 1513 1515 1516 1518 1519 1520 1522 1523 1525 1526
1486 1489 1491 1486 1485 1485 1490 1488 1483 1483 1483 1483 1484 1485 1486 1487 1488 1490 1491 1493 1494 1495 1496 1497 1498 1499 1500 1501 1502 1502 1503 1503 1504 1505 1505 1506 1507 1508 1509 1510 1512 1514 1515 1516 1518 1519 1520 1522 1524
1490 1493 1491 1488 1485 1485 1488 1486 1481 1481 1481 1481 1482 1482 1483 1484 1486 1487 1489 1490 1491 1492 1493 1494 1495 1496 1497 1498 1499 1500 1500 1501 1501 1502 1502 1503 1504 1505 1506 1508 1509 1511 1512 1513 1515 1516 1518 1519 1521
1491 1492 1491 1490 1486 1486 1487 1484 1480 1479 1480 1479 1479 1479 1480 1481 1482 1484 1485 1487 1488 1489 1490 1491 1492 1493 1494 1495 1496 1496 1497 1497 1498 1499 1499 1500 1501 1502 1503 1504 1506 1507 1509 1510 1512 1513 1515 1517 1518
1487 1490 1491 1489 1486 1487 1486 1482 1478 1476 1477 1476 1476 1476 1477 1478 1479 1481 1482 1484 1485 1486 1487 1488 1489 1489 1490 1491 1492 1493 1493 1494 1495 1495 1496 1497 1498 1499 1500 1501 1502 1504 1505 1507 1509 1510 1512 1513 1515
1487 1490 1490 1488 1486 1486 1485 1480 1475 1473 1473 1473 1473 1473 1473 1474 1475 1477 1479 1480 1481 1482 1483 1484 1485 1486 1487 1488 1489 1490 1490 1491 1491 1492 1493 1494 1495 1496 1497 1498 1499 1501 1503 1504 1505 1507 1508 1510 1512
1487 1489 1489 1488 1487 1486 1486 1478 1473 1470 1470 1470 1470 1470 1470 1471 1472 1473 1475 1476 1477 1478 1480 1481 1482 1483 1484 1485 1486 1487 1487 1488 1488 1489 1489 1490 1491 1493 1494 1495 1497 1498 1499 1501 1502 1504 1505 1507 1509
1487 1486 1486 1487 1490 1492 1490 1488 1473 1470 1469 1467 1467 1467 1467 1468 1469 1470 1471 1472 1474 1475 1476 1477 1479 1480 1481 1482 1483 1483 1483 1484 1485 1485 1486 1487 1488 1489 1491 1492 1494 1495 1496 1498 1499 1501 1502 1503 1504
1485 1484 1486 1487 1490 1494 1492 1492 1476 1470 1467 1464 1463 1463 1464 1465 1466 1467 1468 1469 1471 1472 1473 1474 1476 1477 1478 1479 1480 1481 1481 1482 1482 1483 1484 1485 1485 1486 1488 1489 1491 1492 1493 1495 1496 1497 1498 1500 1501
1484 1486 1488 1492 1494 1494 1488 1491 1479 1470 1464 1460 1460 1460 1461 1463 1464 1465 1466 1467 1468 1469 1470 1471 1473 1474 1475 1476 1477 1478 1478 1479 1479 1480 1481 1482 1483 1483 1485 1486 1487 1489 1490 1491 1493 1494 1495 1496 1498
1485 1490 1496 1496 1499 1492 1487 1487 1475 1462 1460 1459 1458 1458 1459 1460 1462 1463 1464 1465 1466 1467 1468 1469 1470 1471 1472 1473 1474 1475 1476 1477 1477 1478 1478 1479 1480 1481 1482 1483 1484 1485 1487 1488 1489 1491 1492 1493 1495
1486 1487 1493 1495 1495 1492 1488 1483 1468 1459 1458 1457 1457 1457 1457 1458 1460 1461 1462 1463 1464 1465 1466 1467 1467 1468 1469 1470 1471 1473 1473 1474 1475 1476 1476 1477 1478 1479 1480 1481 1482 1483 1484 1485 1486 1487 1488 1490 1491
1486 1488 1488 1494 1497 1495 1486 1480 1467 1457 1457 1456 1456 1456 1456 1457 1458 1459 1460 1461 1462 1463 1464 1465 1465 1466 1467 1468 1469 1470 1471 1472 1473 1473 1474 1475 1476 1476 1477 1479 1479 1480 1481 1482 1483 1484 1485 1486 1487
1484 1487 1492 1493 1492 1487 1482 1480 1470 1458 1457 1456 1456 1455 1455 1456 1457 1458 1458 1459 1460 1461 1462 1463 1463 1464 1465 1466 1467 1468 1469 1469 1470 1471 1472 1472 1473 1474 1475 1476 1477 1478 1479 1479 1480 1481 1482 1483 1483
1486 1488 1489 1493 1492 1489 1483 1472 1459 1456 1455 1455 1454 1453 1454 1454 1455 1456 1457 1458 1459 1459 1460 1461 1461 1462 1463 1463 1464 1465 1466 1467 1468 1468 1469 1470 1471 1472 1473 1473 1474 1475 1475 1476 1477 1478 1478 1479 1480
1482 1483 1486 1488 1490 1492 1489 1473 1454 1454 1452 1452 1452 1453 1453 1454 1454 1455 1455 1456 1456 1457 1458 1458 1459 1459 1460 1461 1462 1463 1464 1465 1465 1466 1467 1468 1468 1469 1470 1470 1471 1472 1472 1473 1474 1474 1475 1475 1476